Snowfall_Accumulation
0.0 0.0 0.0 0.0 0.0 0.0 0.0 0.0 0.0 0.0 0.0 0.0 0.0 0.0 0.0 0.0 0.0 0.0 0.0 0.0 0.0 0.0
0.0 0.0 0.0 0.0 0.0 0.0 0.0 0.0 0.0 0.0 0.0 0.0 0.0 0.0 0.0 0.0 0.0 0.0 0.0 0.0 0.0 0.0
0.0 0.0 0.0 0.0 0.0 0.0 0.0 0.0 0.0 0.0 0.0 0.0 0.0 0.0 0.0 0.0 0.0 0.0 0.0 0.0 0.0 0.0
0.0 0.0 0.0 0.0 0.0 0.0 0.0 0.0 0.0 0.0 0.0 0.0 0.0 0.0 0.0 0.0 0.0 0.0 0.0 0.0 0.0 0.0
0.0 0.0 0.0 0.0 0.0 0.0 0.0 0.0 0.0 0.0 0.0 0.0 0.0 0.0 0.0 0.0 0.0 0.0 0.0 0.0 0.0 0.0
0.0 0.0 0.0 0.0 0.0 0.0 0.0 0.0 0.0 0.0 0.0 0.0 0.0 0.0 0.0 0.0 0.0 0.0 0.0 0.0 0.0 0.0
0.0 0.0 0.0 0.0 0.0 0.0 0.0 0.0 0.0 0.0 0.0 0.0 0.0 0.0 0.0 0.0 0.0 0.0 0.0 0.0 0.0 0.0
0.0 0.0 0.0 0.0 0.0 0.0 0.0 0.0 0.0 0.0 0.0 0.0 0.0 0.0 0.0 0.0 0.0 0.0 0.0 0.0 0.0 0.0
0.0 0.0 0.0 0.0 0.0 0.0 0.0 0.0 0.0 0.0 0.0 0.0 0.0 nan nan 0.0 0.0 0.0 0.0 0.0 0.0 0.0
0.1 0.1 0.2 0.1 0.1 0.1 0.1 0.1 0.2 0.1 0.1 0.1 0.1 nan nan nan 0.1 0.1 0.2 0.2 0.1 0.0
0.1 0.3 0.3 0.4 0.8 1.2 1.1 2.8 2.3 1.6 1.4 0.4 0.2 nan nan nan 0.3 0.7 0.9 1.0 0.9 1.0
0.4 0.8 1.0 3.0 2.9 3.0 1.5 1.9 4.7 3.7 2.8 2.2 2.7 nan nan 0.7 1.1 2.3 2.1 1.3 1.7 1.2
0.3 2.0 4.4 4.3 5.6 5.0 4.2 4.8 3.2 3.7 4.2 nan 3.7 nan nan nan 2.9 2.0 3.4 2.6 2.2 nan
0.2 0.8 0.9 1.3 1.9 5.1 6.0 5.9 6.0 5.1 5.2 4.9 4.7 5.1 nan nan 4.4 5.7 4.0 3.8 5.3 4.6
Water_Equivalent
0.00 0.00 0.00 0.00 0.00 0.00 0.00 0.00 0.00 0.00 0.00 0.00 0.00 0.00 0.00 0.00 0.00 0.00 0.00 0.00 0.00 0.00
0.00 0.00 0.00 0.00 0.00 0.00 0.00 0.00 0.00 0.00 0.00 0.00 0.00 0.00 0.00 0.00 0.00 0.00 0.00 0.00 0.00 0.00
0.00 0.00 0.00 0.00 0.00 0.00 0.00 0.00 0.00 0.00 0.00 0.00 0.00 0.00 0.00 0.00 0.00 0.00 0.00 0.00 0.00 0.00
0.00 0.00 0.00 0.00 0.00 0.00 0.00 0.00 0.00 0.00 0.00 0.00 0.00 0.00 0.00 0.00 0.00 0.00 0.00 0.00 0.00 0.00
0.00 0.00 0.00 0.00 0.00 0.00 0.00 0.00 0.00 0.00 0.00 0.00 0.00 0.00 0.00 0.00 0.00 0.00 0.00 0.00 0.00 0.00
0.00 0.00 0.00 0.00 0.00 0.00 0.00 0.00 0.00 0.00 0.00 0.00 0.00 0.00 0.00 0.00 0.00 0.00 0.00 0.00 0.00 0.00
0.00 0.00 0.00 0.00 0.00 0.00 0.00 0.00 0.00 0.00 0.00 0.00 0.00 0.00 0.00 0.00 0.00 0.00 0.00 0.00 0.00 0.00
0.00 0.00 0.00 0.00 0.00 0.00 0.00 0.00 0.00 0.00 0.00 0.00 0.00 0.00 0.00 0.00 0.00 0.00 0.00 0.00 0.00 0.00
0.00 0.00 0.00 0.00 0.00 0.00 0.00 0.00 0.00 0.00 0.00 0.00 0.00 nan nan 0.00 0.00 0.00 0.00 0.00 0.00 0.00
0.03 0.03 0.03 0.02 0.01 0.02 0.03 0.02 0.03 0.03 0.02 0.03 0.01 nan nan nan 0.03 0.03 0.04 0.05 0.03 0.00
0.03 0.07 0.07 0.11 0.20 0.26 0.26 0.62 0.48 0.29 0.26 0.07 0.05 nan nan nan 0.08 0.18 0.18 0.22 0.18 0.20
0.08 0.18 0.22 0.63 0.58 0.64 0.33 0.41 0.94 0.82 0.53 0.37 0.44 nan nan 0.14 0.23 0.54 0.46 0.26 0.33 0.21
0.08 0.41 0.85 0.91 1.21 1.15 0.94 0.97 0.72 0.74 0.82 nan 0.73 nan nan nan 0.58 0.36 0.71 0.50 0.44 nan
0.06 0.27 0.25 0.34 0.52 1.35 1.54 1.52 1.24 1.04 1.05 0.90 0.91 1.05 nan nan 0.85 1.07 0.77 0.73 0.99 0.93
SL_Ratio
nan nan nan nan nan nan nan nan nan nan nan nan nan nan nan nan nan nan nan nan nan nan
nan nan nan nan nan nan nan nan nan nan nan nan nan nan nan nan nan nan nan nan nan nan
nan nan nan nan nan nan nan nan nan nan nan nan nan nan nan nan nan nan nan nan nan nan
nan nan nan nan nan nan nan nan nan nan nan nan nan nan nan nan nan nan nan nan nan nan
nan nan nan nan nan nan nan nan nan nan nan nan nan nan nan nan nan nan nan nan nan nan
nan nan nan nan nan nan nan nan nan nan nan nan nan nan nan nan nan nan nan nan nan nan
nan nan nan nan nan nan nan nan nan nan nan nan nan nan nan nan nan nan nan nan nan nan
4.4 nan nan nan nan nan nan nan nan nan nan nan nan nan nan nan nan nan nan nan nan nan
nan nan nan nan 4.5 nan nan nan nan nan nan nan nan nan nan nan nan nan nan nan nan nan
4.2 4.4 4.6 4.4 4.3 4.4 5.1 5.1 5.0 4.9 4.8 4.9 4.4 nan nan nan 4.3 4.2 5.0 4.8 4.7 4.5
4.3 4.2 4.3 4.1 4.2 4.4 4.2 4.5 4.8 5.5 5.3 5.2 4.5 nan nan nan 3.8 4.1 5.0 4.4 5.1 5.0
4.6 4.7 4.7 4.8 4.9 4.7 4.4 4.6 5.0 4.6 5.2 5.9 6.1 nan nan 4.8 4.9 4.3 4.6 4.9 5.1 5.5
3.9 4.8 5.2 4.7 4.6 4.3 4.5 5.0 4.5 5.1 5.1 nan 5.1 nan nan nan 4.9 5.7 4.8 5.2 5.1 nan
2.9 2.9 3.4 3.7 3.7 3.8 3.9 3.9 4.8 4.9 5.0 5.5 5.2 4.9 nan nan 5.1 5.3 5.2 5.1 5.3 5.0